Time,TemperatureF,DewpointF,PressureIn,WindDirection,WindDirectionDegrees,WindSpeedMPH,WindSpeedGustMPH,Humidity,HourlyPrecipIn,Conditions,Clouds,dailyrainin,SoftwareType,DateUTC
2013-02-25 00:11:00,42.9,43.0,30.19,NE,40,0.0,-999.0,100,-99.99,,,0.00,weatherlink.com 1.10,2013-02-24 22:11:00,
2013-02-25 00:26:00,42.6,43.0,30.19,NNE,25,0.0,-999.0,100,-99.99,,,0.00,weatherlink.com 1.10,2013-02-24 22:26:00,
2013-02-25 00:41:00,42.6,43.0,30.19,NNE,25,0.0,-999.0,100,-99.99,,,0.00,weatherlink.com 1.10,2013-02-24 22:41:00,
2013-02-25 00:56:00,42.6,43.0,30.20,NNE,25,0.0,-999.0,100,-99.99,,,0.00,weatherlink.com 1.10,2013-02-24 22:56:00,
2013-02-25 01:11:00,42.6,43.0,30.20,NNW,339,0.0,-999.0,100,-99.99,,,0.00,weatherlink.com 1.10,2013-02-24 23:11:00,
2013-02-25 01:26:00,42.2,42.0,30.20,West,265,0.0,-999.0,100,-99.99,,,0.00,weatherlink.com 1.10,2013-02-24 23:26:00,
2013-02-25 01:41:00,42.3,42.0,30.20,West,265,0.0,-999.0,100,-99.99,,,0.00,weatherlink.com 1.10,2013-02-24 23:41:00,
2013-02-25 01:56:00,42.2,42.0,30.20,West,274,0.0,-999.0,100,-99.99,,,0.00,weatherlink.com 1.10,2013-02-24 23:56:00,
2013-02-25 02:11:00,42.2,42.0,30.20,NE,41,0.0,-999.0,100,-99.99,,,0.00,weatherlink.com 1.10,2013-02-25 00:11:00,
2013-02-25 02:26:00,42.2,42.0,30.19,NE,41,0.0,-999.0,100,-99.99,,,0.00,weatherlink.com 1.10,2013-02-25 00:26:00,
2013-02-25 02:41:00,42.2,42.0,30.19,West,270,0.0,-999.0,100,-99.99,,,0.00,weatherlink.com 1.10,2013-02-25 00:41:00,
2013-02-25 02:56:00,42.1,42.0,30.18,West,274,0.0,-999.0,100,-99.99,,,0.00,weatherlink.com 1.10,2013-02-25 00:56:00,
2013-02-25 03:11:00,41.8,42.0,30.18,North,357,0.0,-999.0,100,-99.99,,,0.00,weatherlink.com 1.10,2013-02-25 01:11:00,
2013-02-25 03:26:00,41.3,41.0,30.18,NNW,346,0.0,-999.0,100,-99.99,,,0.00,weatherlink.com 1.10,2013-02-25 01:26:00,
2013-02-25 03:41:00,41.1,41.0,30.19,North,10,1.0,-999.0,100,-99.99,,,0.00,weatherlink.com 1.10,2013-02-25 01:41:00,
2013-02-25 03:56:00,40.6,41.0,30.19,NNE,17,0.0,-999.0,100,-99.99,,,0.00,weatherlink.com 1.10,2013-02-25 01:56:00,
2013-02-25 04:11:00,40.6,41.0,30.18,NNE,30,0.0,-999.0,100,-99.99,,,0.00,weatherlink.com 1.10,2013-02-25 02:11:00,
2013-02-25 04:26:00,40.9,41.0,30.19,NNE,20,2.0,-999.0,100,-99.99,,,0.00,weatherlink.com 1.10,2013-02-25 02:26:00,
2013-02-25 04:41:00,40.9,41.0,30.19,NNE,27,2.0,-999.0,100,-99.99,,,0.00,weatherlink.com 1.10,2013-02-25 02:41:00,
2013-02-25 04:56:00,41.2,41.0,30.19,NNE,28,2.0,-999.0,100,-99.99,,,0.01,weatherlink.com 1.10,2013-02-25 02:56:00,
2013-02-25 05:11:00,41.1,41.0,30.20,NNE,14,5.0,-999.0,100,-99.99,,,0.01,weatherlink.com 1.10,2013-02-25 03:11:00,
2013-02-25 05:26:00,40.9,41.0,30.19,NE,37,0.0,-999.0,100,-99.99,,,0.01,weatherlink.com 1.10,2013-02-25 03:26:00,
2013-02-25 05:42:00,40.9,41.0,30.20,North,1,5.0,-999.0,100,-99.99,,,0.01,weatherlink.com 1.10,2013-02-25 03:42:00,
2013-02-25 05:57:00,40.6,41.0,30.20,NE,45,5.0,-999.0,100,-99.99,,,0.01,weatherlink.com 1.10,2013-02-25 03:57:00,
2013-02-25 06:12:00,40.6,41.0,30.20,NE,48,1.0,-999.0,100,-99.99,,,0.01,weatherlink.com 1.10,2013-02-25 04:12:00,
2013-02-25 06:27:00,40.3,40.0,30.20,NNE,30,2.0,-999.0,100,-99.99,,,0.01,weatherlink.com 1.10,2013-02-25 04:27:00,
2013-02-25 06:42:00,40.3,40.0,30.20,NNE,20,4.0,-999.0,100,-99.99,,,0.01,weatherlink.com 1.10,2013-02-25 04:42:00,
2013-02-25 06:57:00,40.5,41.0,30.20,NNE,32,5.0,-999.0,100,-99.99,,,0.01,weatherlink.com 1.10,2013-02-25 04:57:00,
2013-02-25 07:12:00,40.5,41.0,30.20,NNE,23,0.0,-999.0,100,-99.99,,,0.01,weatherlink.com 1.10,2013-02-25 05:12:00,
2013-02-25 07:27:00,40.5,41.0,30.20,NNE,20,5.0,-999.0,100,-99.99,,,0.01,weatherlink.com 1.10,2013-02-25 05:27:00,
2013-02-25 07:42:00,40.5,41.0,30.21,NNE,25,2.0,-999.0,100,-99.99,,,0.01,weatherlink.com 1.10,2013-02-25 05:42:00,
2013-02-25 07:57:00,40.6,41.0,30.21,NNE,27,0.0,-999.0,100,-99.99,,,0.01,weatherlink.com 1.10,2013-02-25 05:57:00,
2013-02-25 08:12:00,41.1,41.0,30.22,NNE,31,5.0,-999.0,100,-99.99,,,0.01,weatherlink.com 1.10,2013-02-25 06:12:00,
2013-02-25 08:27:00,41.2,41.0,30.22,NNE,31,6.0,-999.0,100,-99.99,,,0.01,weatherlink.com 1.10,2013-02-25 06:27:00,
2013-02-25 08:42:00,41.2,41.0,30.22,NNE,30,2.0,-999.0,100,-99.99,,,0.01,weatherlink.com 1.10,2013-02-25 06:42:00,
2013-02-25 08:57:00,42.1,42.0,30.23,NE,44,0.0,-999.0,100,-99.99,,,0.01,weatherlink.com 1.10,2013-02-25 06:57:00,
2013-02-25 09:13:00,42.8,43.0,30.23,NE,44,3.0,-999.0,100,-99.99,,,0.01,weatherlink.com 1.10,2013-02-25 07:13:00,
2013-02-25 09:28:00,43.8,44.0,30.22,NNE,25,0.0,-999.0,100,-99.99,,,0.01,weatherlink.com 1.10,2013-02-25 07:28:00,
2013-02-25 09:43:00,44.6,45.0,30.22,NNE,30,4.0,-999.0,100,-99.99,,,0.01,weatherlink.com 1.10,2013-02-25 07:43:00,
2013-02-25 09:58:00,44.8,45.0,30.22,North,11,0.0,-999.0,100,-99.99,,,0.01,weatherlink.com 1.10,2013-02-25 07:58:00,
2013-02-25 10:13:00,45.2,45.0,30.22,NE,41,6.0,-999.0,100,-99.99,,,0.01,weatherlink.com 1.10,2013-02-25 08:13:00,
2013-02-25 10:28:00,45.7,46.0,30.23,NE,38,5.0,-999.0,100,-99.99,,,0.01,weatherlink.com 1.10,2013-02-25 08:28:00,
2013-02-25 10:43:00,46.8,47.0,30.23,NNE,30,3.0,-999.0,100,-99.99,,,0.01,weatherlink.com 1.10,2013-02-25 08:43:00,
2013-02-25 10:58:00,47.9,48.0,30.23,NNE,24,1.0,-999.0,100,-99.99,,,0.01,weatherlink.com 1.10,2013-02-25 08:58:00,
2013-02-25 11:13:00,49.4,49.0,30.22,NNE,25,2.0,-999.0,100,-99.99,,,0.01,weatherlink.com 1.10,2013-02-25 09:13:00,
2013-02-25 11:28:00,50.1,50.0,30.22,NE,37,5.0,-999.0,100,-99.99,,,0.01,weatherlink.com 1.10,2013-02-25 09:28:00,
2013-02-25 11:43:00,51.0,51.0,30.22,NNE,24,3.0,-999.0,100,-99.99,,,0.01,weatherlink.com 1.10,2013-02-25 09:43:00,
2013-02-25 11:58:00,51.0,51.0,30.22,NE,42,1.0,-999.0,100,-99.99,,,0.01,weatherlink.com 1.10,2013-02-25 09:58:00,
2013-02-25 12:13:00,51.3,51.0,30.21,NNE,25,2.0,-999.0,100,-99.99,,,0.01,weatherlink.com 1.10,2013-02-25 10:13:00,
2013-02-25 12:28:00,51.6,52.0,30.21,NE,41,5.0,-999.0,100,-99.99,,,0.01,weatherlink.com 1.10,2013-02-25 10:28:00,
2013-02-25 12:44:00,51.4,51.0,30.20,NNE,30,5.0,-999.0,100,-99.99,,,0.01,weatherlink.com 1.10,2013-02-25 10:44:00,
2013-02-25 12:59:00,51.3,51.0,30.19,NE,34,5.0,-999.0,100,-99.99,,,0.01,weatherlink.com 1.10,2013-02-25 10:59:00,
2013-02-25 13:14:00,51.1,51.0,30.19,North,6,4.0,-999.0,100,-99.99,,,0.01,weatherlink.com 1.10,2013-02-25 11:14:00,
2013-02-25 13:29:00,50.7,51.0,30.19,North,4,5.0,-999.0,100,-99.99,,,0.01,weatherlink.com 1.10,2013-02-25 11:29:00,
2013-02-25 13:44:00,49.5,50.0,30.18,NE,35,8.0,-999.0,100,-99.99,,,0.01,weatherlink.com 1.10,2013-02-25 11:44:00,
2013-02-25 13:59:00,49.2,49.0,30.18,North,7,6.0,-999.0,100,-99.99,,,0.01,weatherlink.com 1.10,2013-02-25 11:59:00,
2013-02-25 14:14:00,48.9,49.0,30.18,North,4,5.0,-999.0,100,-99.99,,,0.01,weatherlink.com 1.10,2013-02-25 12:14:00,
2013-02-25 14:29:00,47.7,48.0,30.18,NE,37,7.0,-999.0,100,-99.99,,,0.01,weatherlink.com 1.10,2013-02-25 12:29:00,
2013-02-25 14:44:00,46.2,46.0,30.18,NE,37,8.0,-999.0,100,-99.99,,,0.01,weatherlink.com 1.10,2013-02-25 12:44:00,
2013-02-25 14:59:00,45.1,45.0,30.18,NE,54,7.0,-999.0,100,-99.99,,,0.01,weatherlink.com 1.10,2013-02-25 12:59:00,
2013-02-25 15:14:00,44.5,45.0,30.18,NNE,21,11.0,-999.0,100,-99.99,,,0.01,weatherlink.com 1.10,2013-02-25 13:14:00,
2013-02-25 15:29:00,44.3,44.0,30.18,NNE,30,10.0,-999.0,100,-99.99,,,0.01,weatherlink.com 1.10,2013-02-25 13:29:00,
2013-02-25 15:44:00,44.1,44.0,30.18,NNE,17,13.0,-999.0,100,-99.99,,,0.01,weatherlink.com 1.10,2013-02-25 13:44:00,
2013-02-25 15:59:00,44.1,44.0,30.17,North,359,6.0,-999.0,100,-99.99,,,0.01,weatherlink.com 1.10,2013-02-25 13:59:00,
2013-02-25 16:30:00,43.3,43.0,30.16,NNE,17,8.0,-999.0,100,-99.99,,,0.01,weatherlink.com 1.10,2013-02-25 14:30:00,
2013-02-25 16:45:00,42.8,43.0,30.15,NNE,17,8.0,-999.0,100,-99.99,,,0.01,weatherlink.com 1.10,2013-02-25 14:45:00,
2013-02-25 17:00:00,42.6,43.0,30.16,NNE,18,7.0,-999.0,100,-99.99,,,0.01,weatherlink.com 1.10,2013-02-25 15:00:00,
2013-02-25 17:15:00,42.6,43.0,30.15,NNE,14,7.0,-999.0,100,-99.99,,,0.01,weatherlink.com 1.10,2013-02-25 15:15:00,
2013-02-25 17:30:00,42.6,43.0,30.15,North,7,11.0,-999.0,100,-99.99,,,0.01,weatherlink.com 1.10,2013-02-25 15:30:00,
2013-02-25 17:45:00,42.5,43.0,30.16,NE,34,6.0,-999.0,100,-99.99,,,0.01,weatherlink.com 1.10,2013-02-25 15:45:00,
2013-02-25 18:00:00,42.6,43.0,30.16,NNE,17,8.0,-999.0,100,-99.99,,,0.01,weatherlink.com 1.10,2013-02-25 16:00:00,
2013-02-25 18:15:00,42.8,43.0,30.16,North,8,4.0,-999.0,100,-99.99,,,0.01,weatherlink.com 1.10,2013-02-25 16:15:00,
2013-02-25 18:30:00,42.6,43.0,30.16,NNE,30,9.0,-999.0,100,-99.99,,,0.01,weatherlink.com 1.10,2013-02-25 16:30:00,
2013-02-25 18:45:00,42.6,43.0,30.16,NNE,21,12.0,-999.0,100,-99.99,,,0.01,weatherlink.com 1.10,2013-02-25 16:45:00,
2013-02-25 19:00:00,42.3,42.0,30.16,North,1,6.0,-999.0,100,-99.99,,,0.01,weatherlink.com 1.10,2013-02-25 17:00:00,
2013-02-25 19:15:00,42.3,42.0,30.16,North,3,6.0,-999.0,100,-99.99,,,0.01,weatherlink.com 1.10,2013-02-25 17:15:00,
2013-02-25 19:31:00,42.2,42.0,30.16,NNE,25,5.0,-999.0,100,-99.99,,,0.01,weatherlink.com 1.10,2013-02-25 17:31:00,
2013-02-25 19:46:00,42.1,42.0,30.16,NNE,25,14.0,-999.0,100,-99.99,,,0.01,weatherlink.com 1.10,2013-02-25 17:46:00,
2013-02-25 20:01:00,42.2,42.0,30.17,North,11,3.0,-999.0,100,-99.99,,,0.01,weatherlink.com 1.10,2013-02-25 18:01:00,
2013-02-25 20:16:00,42.1,42.0,30.17,NNE,23,14.0,-999.0,100,-99.99,,,0.01,weatherlink.com 1.10,2013-02-25 18:16:00,
2013-02-25 20:31:00,42.1,42.0,30.16,NNE,17,19.0,-999.0,100,-99.99,,,0.01,weatherlink.com 1.10,2013-02-25 18:31:00,
2013-02-25 21:01:00,42.1,42.0,30.16,North,8,11.0,-999.0,100,-99.99,,,0.01,weatherlink.com 1.10,2013-02-25 19:01:00,
2013-02-25 21:16:00,42.1,42.0,30.16,NE,40,5.0,-999.0,100,-99.99,,,0.01,weatherlink.com 1.10,2013-02-25 19:16:00,
2013-02-25 21:31:00,42.2,42.0,30.16,NNE,16,11.0,-999.0,100,-99.99,,,0.01,weatherlink.com 1.10,2013-02-25 19:31:00,
2013-02-25 21:46:00,42.2,42.0,30.16,NNE,24,12.0,-999.0,100,-99.99,,,0.01,weatherlink.com 1.10,2013-02-25 19:46:00,
2013-02-25 22:01:00,42.2,42.0,30.16,NNE,21,8.0,-999.0,100,-99.99,,,0.01,weatherlink.com 1.10,2013-02-25 20:01:00,
2013-02-25 22:16:00,42.2,42.0,30.15,NNE,25,8.0,-999.0,100,-99.99,,,0.01,weatherlink.com 1.10,2013-02-25 20:16:00,
2013-02-25 22:31:00,42.2,42.0,30.15,NNE,25,14.0,-999.0,100,-99.99,,,0.01,weatherlink.com 1.10,2013-02-25 20:31:00,
2013-02-25 22:46:00,42.2,42.0,30.15,North,11,13.0,-999.0,100,-99.99,,,0.01,weatherlink.com 1.10,2013-02-25 20:46:00,
2013-02-25 23:02:00,42.3,42.0,30.15,NNE,17,8.0,-999.0,100,-99.99,,,0.01,weatherlink.com 1.10,2013-02-25 21:02:00,
2013-02-25 23:17:00,42.2,42.0,30.14,NE,37,12.0,-999.0,100,-99.99,,,0.01,weatherlink.com 1.10,2013-02-25 21:17:00,
2013-02-25 23:32:00,42.3,42.0,30.15,North,11,9.0,-999.0,100,-99.99,,,0.01,weatherlink.com 1.10,2013-02-25 21:32:00,
2013-02-25 23:47:00,42.5,43.0,30.15,NNE,25,7.0,-999.0,100,-99.99,,,0.01,weatherlink.com 1.10,2013-02-25 21:47:00,